[Iaude] MPEC U90: 2013 SJ100 [a=43.39,e=0.05,i=2.9,H=7.6]

mpec at mpcdb1.cfa.harvard.edu mpec at mpcdb1.cfa.harvard.edu
Thu Oct 19 18:07:17 EDT 2017


M.P.E.C. 2017-U90                                Issued 2017 Oct. 19, 22:03 UT
 
     The Minor Planet Electronic Circulars contain information on unusual
         minor planets and routine data on comets.  They are published
    on behalf of Division F of the International Astronomical Union by the
          Minor Planet Center, Smithsonian Astrophysical Observatory,
                          Cambridge, MA 02138, U.S.A.

             Prepared using the Tamkin Foundation Computer Network

                              MPC at CFA.HARVARD.EDU
            URL http://www.minorplanetcenter.net/    ISSN 1523-6714


                                  2013 SJ100
 
Observations:
     K13SA0J @C2013 08 04.49820 00 53 18.023+02 30 20.30         24.2 rqEU090568
     K13SA0J @C2013 08 05.47365 00 53 16.493+02 30 06.96         24.1 rqEU090568
     K13SA0J @C2013 08 05.51257 00 53 16.416+02 30 06.43         24.0 rqEU090568
     K13SA0J @C2013 08 08.45262 00 53 11.305+02 29 23.27         23.8 rqEU090568
     K13SA0J @C2013 08 31.53287 00 52 11.671+02 21 53.25               qEU090568
     K13SA0J @C2013 08 31.57657 00 52 11.510+02 21 51.98         23.1 rqEU090568
     K13SA0J @C2013 09 01.42327 00 52 08.755+02 21 32.48         24.4 rqEU090568
     K13SA0J @C2013 09 01.46210 00 52 08.629+02 21 31.61         24.3 rqEU090568
     K13SA0J @C2013 09 05.40278 00 51 55.245+02 19 57.53         24.1 rqEU090568
     K13SA0J @C2013 09 05.44158 00 51 55.097+02 19 56.61         24.2 rqEU090568
     K13SA0J*@C2013 09 29.32343 00 50 22.118+02 09 35.49         23.8 rqEU090568
     K13SA0J @C2013 09 29.37258 00 50 21.917+02 09 34.14         24.0 rqEU090568
     K13SA0J @C2013 09 29.41164 00 50 21.742+02 09 33.02         24.3 rqEU090568
     K13SA0J @C2013 10 02.40208 00 50 09.226+02 08 12.86         23.7 rqEU090568
     K13SA0J @C2013 10 03.35740 00 50 05.224+02 07 47.43         23.9 rqEU090568
     K13SA0J @C2013 10 03.41811 00 50 04.969+02 07 45.64         24.3 rqEU090568
     K13SA0J @C2013 10 04.47974 00 50 00.496+02 07 17.09         23.6 rqEU090568
     K13SA0J @C2013 10 09.46022 00 49 39.528+02 05 05.15         24.0 rqEU090568
     K13SA0J @C2013 10 09.46522 00 49 39.501+02 05 04.80         24.3 rqEU090568
     K13SA0J @C2013 11 27.25962 00 46 48.224+01 48 39.88         24.0 rqEU090568
     K13SA0J @C2013 11 27.30410 00 46 48.117+01 48 39.43         24.2 rqEU090568
     K13SA0J @C2013 12 05.21780 00 46 32.395+01 47 28.99         24.1 rqEU090568
     K13SA0J @C2014 01 02.22061 00 46 16.697+01 47 46.07         24.0 rqEU090568
     K13SA0J @C2014 06 25.57325 00 57 34.461+02 59 35.39         24.0 rqEU090568
     K13SA0J @C2014 06 26.57215 00 57 36.120+02 59 41.27         24.1 rqEU090568
     K13SA0J @C2014 07 23.55975 00 57 50.830+02 59 17.48         24.6 rqEU090568
     K13SA0J @C2014 07 27.53892 00 57 48.103+02 58 43.76         24.9 rqEU090568
     K13SA0J @C2014 08 24.49378 00 56 56.052+02 51 34.98         24.5 rqEU090568
     K13SA0J @C2014 08 28.46592 00 56 44.481+02 50 10.80         24.2 rqEU090568
     K13SA0J @C2014 10 23.31109 00 53 06.393+02 26 30.89         24.1 rqEU090568
     K13SA0J @C2014 10 23.31499 00 53 06.349+02 26 30.69         23.9 rqEU090568
     K13SA0J @C2014 10 23.31888 00 53 06.336+02 26 30.63         23.9 rqEU090568
     K13SA0J @C2014 10 27.27777 00 52 50.547+02 24 56.81         24.0 rqEU090568
     K13SA0J @C2014 10 27.28165 00 52 50.522+02 24 56.66         24.6 rqEU090568
     K13SA0J @C2014 10 27.28553 00 52 50.510+02 24 56.75         24.0 rqEU090568
     K13SA0J @C2014 11 24.25948 00 51 16.990+02 16 17.22         24.1 rqEU090568
     K13SA0J @C2014 11 24.29560 00 51 16.904+02 16 16.72         24.2 rqEU090568
     K13SA0J @C2014 11 25.28967 00 51 14.381+02 16 04.32         24.6 rqEU090568
     K13SA0J @C2014 12 17.27972 00 50 36.773+02 13 31.43         24.0 rqEU090568
     K13SA0J @C2015 01 17.24876 00 50 50.890+02 17 13.54         24.1 rqEU090568
     K13SA0J @C2015 01 18.25083 00 50 52.690+02 17 29.13         23.9 rqEU090568
 
Observer details:
568 Mauna Kea.  Observers M. T. Bannister, J. J. Kavelaars, B. J. Gladman,
    J.-M. Petit, T. Burdullis.  Measurers S. D. J. Gwyn, Y.-T. Chen,
    M. Alexandersen.  3.6-m Canada-France-Hawaii Telescope + CCD.
 
Orbital elements:
2013 SJ100
Epoch 2017 Sept. 4.0 TT = JDT 2458000.5                 MPC
M 209.33551              (2000.0)            P               Q
n   0.00344864     Peri.   59.85044     -0.98372658     -0.17306515
a  43.3880777      Node   110.14718     +0.14203085     -0.91360021
e   0.0463494      Incl.    2.94753     +0.11004209     -0.36794443
P 286              H    7.6           G   0.15           U   5
Residuals in seconds of arc
130804 568  0.0   0.2-    131003 568  0.0   0.2+    140828 568  0.1-  0.1+
130805 568  0.2+  0.0     131003 568  0.1+  0.0     141023 568  0.2+  0.0
130805 568  0.1+  0.0     131004 568  0.1+  0.1-    141023 568  0.2-  0.1-
130808 568  0.3-  0.1+    131009 568  0.1+  0.2+    141023 568  0.1-  0.0
130831 568  0.1+  0.2+    131009 568  0.0   0.1-    141027 568  0.1+  0.1+
130831 568  0.1-  0.1-    131127 568  0.1-  0.0     141027 568  0.0   0.0
130901 568  0.0   0.1+    131127 568  0.1-  0.0     141027 568  0.0   0.2+
130901 568  0.1+  0.1+    131205 568  0.1+  0.1+    141124 568  0.2-  0.1-
130905 568  0.0   0.1-    140102 568  0.0   0.5-    141124 568  0.0   0.1-
130905 568  0.1-  0.1-    140625 568  0.1-  0.0     141125 568  0.1+  0.1+
130929 568  0.0   0.0     140626 568  0.0   0.2-    141217 568  0.1+  0.0
130929 568  0.1+  0.0     140723 568  0.1+  0.1-    150117 568  0.1+  0.0
130929 568  0.1-  0.1-    140727 568  0.1+  0.0     150118 568  0.0   0.0
131002 568  0.1-  0.0     140824 568  0.0   0.0

Ephemeris:
2013 SJ100               a,e,i = 43.39, 0.05, 3                  q = 41.377
Date    TT    R. A. (2000) Decl.     Delta      r     Elong.  Phase     V
2017 09 19    01 08 38.3 +04 02 24  44.2256 45.1615   158.4     0.5    24.2
...
2017 10 04    01 07 37.3 +03 55 53  44.1677 45.1607   173.0     0.2    24.1
...
2017 10 12    01 07 03.5 +03 52 23  44.1639 45.1602   176.6     0.1    24.1
...
2017 10 18    01 06 38.0 +03 49 48  44.1737 45.1599   171.7     0.2    24.2
2017 10 19    01 06 33.8 +03 49 23  44.1764 45.1598   170.7     0.2    24.2
2017 10 20    01 06 29.6 +03 48 58  44.1794 45.1598   169.8     0.2    24.2
...
2017 10 26    01 06 04.8 +03 46 30  44.2036 45.1595   163.9     0.4    24.2
...
2017 11 03    01 05 33.0 +03 43 26  44.2521 45.1590   155.8     0.5    24.2
...
2017 11 18    01 04 39.9 +03 38 34  44.3898 45.1582   140.6     0.8    24.2

A. U. Tomatic                (C) Copyright 2017 MPC           M.P.E.C. 2017-U90



More information about the Iaude mailing list